KUIPER-00592

导读

KUIPER-00592(NORAD编号69277)是亚马逊“柯伊伯计划”低轨宽带通信星座的组网卫星,于2025年9月25日通过Atlas V 551火箭在卡纳维拉尔角执行KA-03任务时发射升空,属于该项目第五次发射任务。卫星先被送入450公里初始轨道,经电推进爬升至630公里工作轨道,轨道倾角51.9度,在轨运行状态正常。其配备Ka波段相控阵天线与低反光光学设计,可为全球人口密集区域提供低延迟高速网络服务,是亚马逊布局卫星互联网、对标星链的组成节点,助力该星座达成2026年FCC要求的千星运营目标。

基本信息
目录编号:
69277
目录名称:
KUIPER-00592
国际标识:
2026-118L
轨道中心:
EARTH
卫星名称:
KUIPER-00592
卫星全名:
KUIPER-00592
卫星状态:
在轨 (已飞行106 天)
发射日期:
2026-05-29 UTC
国别 :
美国 (US)
星等 :
--
该卫星已列入 空间交会检测服务 Space Conjunction Data Service (SCDS) ,当前飞行风险评估等级: 高风险
轨道信息
数据来源 国际轨道数据 AOE轨道数据
星历时间 2026-09-12T02:18:14+0800
9小时前
查看轨道信息
2026-09-07T02:00:00+0800
5天前
查看轨道信息
半长轴 7007.747km 7007.818km
偏心率 0.0000599 0.0000783
轨道倾角 51.904° 51.903°
近地点辐角 100.136° 86.657°
升交点赤经 17.717° 39.882°
平近点角 259.967° 191.607°
近地点 629.19km 629.132km
远地点 630.03km 630.23km
周期 97.303分钟 97.305分钟
每日圈数 14.799097 14.79887
详细信息
使用方式:
暂无
2D轨道图
3D轨道图
轨道高度分析图
轨道倾角分析图
轨道综合分析图
查看轨道综合分析图
交会数据列表
事件ID 空间交会对象 最接近时刻(TCA) 交会距离 交会风险概率(CRP) 交会风险指数(CRI) 操作
CDM_260913-182106-577906-927721
2026-09-13T
18:21:42+0000
0.309 km
远距离
3.903404E-4 高风险 0.87
CDM_260911-214706-577906-927721
2026-09-11T
21:47:32+0000
0.330 km
远距离
3.509292E-4 高风险 0.86
CDM_260911-232406-577906-927721
2026-09-11T
23:24:46+0000
0.438 km
远距离
2.053684E-4 高风险 0.81
CDM_260913-195806-577906-927721
2026-09-13T
19:58:57+0000
0.671 km
远距离
6.915698E-5 中风险 0.72
CDM_260911-201006-577906-927721
2026-09-11T
20:10:17+0000
1.081 km
极远距离
1.450874E-5 中风险 0.58
CDM_260912-010206-577906-927721
2026-09-12T
01:02:01+0000
1.202 km
极远距离
1.001398E-5 中风险 0.55
CDM_260913-164406-577906-927721
2026-09-13T
16:44:28+0000
1.219 km
极远距离
9.548576E-6 低风险 0.55
CDM_260913-213606-577906-927721
2026-09-13T
21:36:11+0000
1.608 km
极远距离
3.824921E-6 低风险 0.47
CDM_260913-200706-157106-927722
2026-09-13T
20:07:40+0000
2.115 km
极远距离
2.193783E-6 低风险 0.42
CDM_260912-023906-577906-927721
2026-09-12T
02:39:16+0000
1.975 km
极远距离
2.149043E-6 低风险 0.42
与全量物体交会距离演化趋势
与全量物体交会风险概率演化趋势